Starlink 34352

operational
NORAD ID: 64257 Int'l Des: 2025-120 Owner: SPXS Country: US Constellation: starlink
LEOCIRCULAR

About Starlink 34352

Description loading...

Live Position

Loading 3D Globe...

Upcoming Passes

Altitude History

Altitude vs Time

uPlot chart will show altitude changes over time

Two-Line Element Set

1 64257U 25120B 26094.99905938 .00031344 00000-0 10679-2 0 9997
2 64257 53.1604 354.5314 0000791 89.7748 270.3343 15.30139325 47892
Epoch: Apr 4, 2026 • Age: 21 hours

Current Status

Altitude 475.9 km
Velocity 7.63 km/s
Sub-Earth Point 1.49°N, 18.18°E
Launch Date Jun 4, 2025
Age 0.8 years
Type internet

Technical Details

Classification Payload
Mass 575.00 kg
Dry Mass 530.00 kg
Total Mass 575.00 kg
Length 0.30 m
Diameter 4.10 m
Span 29.00 m
Shape Box + pan
Manufacturer SPXS
Bus Type Starlink V2MO
Phase Status In Orbit
Owner/State SPXS/US

Large Constellations

Loading constellations...